User: anonymous   Login
Location: Paris
(48.6709°N, 2.3750°E)
Time: 04:52:38
(UTC+02:00)
Language:

KAITUO 1B - Orbit

View from above orbital plane
View from above orbital plane
View from above satellite
View from above satellite

Ground track
Ground track

The orbit data is extracted from the following two-line orbital elements,

1 40912U 15049P   22176.86470222  .00009551  00000-0  37063-3 0  9996
2 40912  97.4359 188.2251 0010750 273.1614 207.8043 15.26264152375035
Epoch (UTC): 25 June 2022 20:45:10
Eccentricity: 0.0010750
inclination: 97.4359°
perigee height: 479 km
apogee height: 494 km
right ascension of ascending node: 188.2251°
argument of perigee: 273.1614°
revolutions per day: 15.26264152
mean anomaly at epoch: 207.8043°
orbit number at epoch: 37503

The dashed part of the orbit path shows where the satellite is in the earth's shadow,  

DLR